Tracking 35275 objects as of 8-Sep-2026
HD Live streaming from Space Station
objects crossing your sky now

FLOCK 4P 5


FLOCK 4P 5 is no longer on orbit
FLOCK 4P 5 is classified as:


NORAD ID: 44818
Int'l Code: 2019-081Q
Launch date: November 27, 2019
Source: United States (US)
Launch site: SRIHARIKOTA (SRI)
Decay date: 2024-02-24
Your satellite tracking list
Your tracking list is empty




NASA's NSSDC Master Catalog

Two Line Element Set (TLE):
1 44818U 19081Q   24053.72026590  .18203107  24757-5  31472-3 0  9991
2 44818  97.3116 136.1808 0009482 288.9413  71.0863 16.47408684236823
Source of the keplerian elements: AFSPC